Weather History for Palm Springs, CA

Change the Weather History Date:

Sunday, December 23, 2012

  Actual Average Record
Temperature  
Mean Temperature 54 °F 55 °F  
Max Temperature 66 °F 66 °F 85 °F (1950)
Min Temperature 41 °F 44 °F 24 °F (1990)
Degree Days  
Heating Degree Days 11 10  
Month to date heating degree days 162 213  
Since 1 July heating degree days 197 309  
Cooling Degree Days 0 0  
Month to date cooling degree days 21 0  
Year to date cooling degree days 4726 4137  
Growing Degree Days 4 (Base 50)    
Moisture  
Dew Point 35 °F    
Average Humidity 48    
Maximum Humidity 58    
Minimum Humidity 37    
Precipitation  
Precipitation 0.00 in 0.02 in 1.36 in (1945)
Month to date precipitation 0.19 0.54  
Year to date precipitation 2.01 5.40  
Since 1 July precipitation 1.22 2.46  
Snow  
Snow 0.00 in - - ()
Month to date snowfall 0.0  
Year to date snowfall 0.0  
Since 1 July snowfall 0.0  
Snow Depth 0.00 in    
Sea Level Pressure  
Sea Level Pressure 30.08 in    
Wind  
Wind Speed 4 mph (ESE)    
Max Wind Speed 9 mph    
Max Gust Speed 12 mph    
Visibility 10 miles    
Events      
T = Trace of Precipitation, MM = Missing Value Source: NWS Daily Summary

Daily Weather History Graph

Daily Weather History Graph

Search for Another Location

Airport:

Trip Planner

Search our weather history database for the weather conditions in past years. The results will help you decide how hot, cold, wet, or windy it might be!

Date:

Astronomy

Dec. 23, 2012 Rise Set
Actual Time 6:48 AM PST 4:42 PM PST
Civil Twilight 6:20 AM PST 5:10 PM PST
Nautical Twilight 5:49 AM PST 5:41 PM PST
Astronomical Twilight 5:18 AM PST 6:12 PM PST
Moon 1:31 PM PST (12/23) 2:40 AM PST (12/23)
Length of Visible Light 10h 49m
Length of Day
9h 54m
Waxing Gibbous, 82% of the Moon is Illuminated
Dec 23
Waxing Gibbous
Dec 28
Full
Jan 4
Last Quarter
Jan 11
New
Jan 18
First Quarter

Hourly Weather History & Observations

Time (PST) Temp. Windchill Dew Point Humidity Pressure Visibility Wind Dir Wind Speed Gust Speed Precip Events Conditions
12:53 AM 46.9 °F - 26.1 °F 44% 30.11 in 10.0 mi NNW 4.6 mph - N/A   Clear
1:53 AM 46.9 °F - 27.0 °F 46% 30.11 in 10.0 mi Calm Calm - N/A   Clear
2:53 AM 44.1 °F 42.5 °F 27.0 °F 51% 30.10 in 10.0 mi WSW 3.5 mph - N/A   Clear
4:53 AM 45.0 °F 43.5 °F 28.9 °F 53% 30.10 in 10.0 mi West 3.5 mph - N/A   Clear
5:53 AM 46.0 °F 43.9 °F 30.0 °F 54% 30.10 in 10.0 mi NNW 4.6 mph - N/A   Clear
6:53 AM 46.0 °F 44.8 °F 30.9 °F 56% 30.12 in 10.0 mi SW 3.5 mph - N/A   Clear
7:53 AM 46.9 °F - 32.0 °F 56% 30.12 in 10.0 mi Calm Calm - N/A   Clear
8:53 AM 55.0 °F - 34.0 °F 45% 30.13 in 10.0 mi Calm Calm - N/A   Clear
9:53 AM 57.0 °F - 35.1 °F 44% 30.15 in 10.0 mi ENE 3.5 mph - N/A   Clear
10:53 AM 60.1 °F - 37.0 °F 42% 30.14 in 10.0 mi Variable 3.5 mph - N/A   Scattered Clouds
11:53 AM 63.0 °F - 37.9 °F 40% 30.10 in 10.0 mi SE 4.6 mph - N/A   Clear
12:53 PM 64.0 °F - 37.9 °F 38% 30.07 in 10.0 mi SE 6.9 mph - N/A   Scattered Clouds
1:53 PM 64.9 °F - 37.0 °F 36% 30.04 in 10.0 mi ESE 4.6 mph - N/A   Scattered Clouds
2:53 PM 64.9 °F - 37.9 °F 37% 30.04 in 10.0 mi East 4.6 mph - N/A   Scattered Clouds
3:53 PM 64.0 °F - 39.0 °F 40% 30.03 in 10.0 mi SSE 5.8 mph - N/A   Scattered Clouds
4:53 PM 61.0 °F - 39.9 °F 46% 30.02 in 10.0 mi East 3.5 mph - N/A   Scattered Clouds
5:53 PM 59.0 °F - 39.9 °F 49% 30.03 in 10.0 mi NE 3.5 mph - N/A   Clear
6:53 PM 57.0 °F - 41.0 °F 55% 30.04 in 10.0 mi Calm Calm - N/A   Clear
7:53 PM 54.0 °F - 41.0 °F 62% 30.04 in 10.0 mi Calm Calm - N/A   Clear
8:53 PM 54.0 °F - 39.9 °F 59% 30.04 in 10.0 mi Calm Calm - N/A   Clear
9:53 PM 53.1 °F - 39.0 °F 59% 30.05 in 10.0 mi North 6.9 mph - N/A   Clear
10:53 PM 52.0 °F - 39.0 °F 61% 30.06 in 10.0 mi Calm Calm - N/A   Clear
11:53 PM 48.0 °F - 39.0 °F 71% 30.03 in 10.0 mi SW 4.6 mph - N/A   Clear